| time (UTC) | temp F | wind direction | speed MPH | gust MPH | rain 1hr in | rain 24hr in | rain mn in | humidity % | barometer mb |
| 20260508153003 | 54 | 348 | 1.0 | 3.0 | 0.00 | 0.06 | 0.04 | 73 | 1010.4 |
| 20260508152003 | 53 | 18 | 2.0 | 9.0 | 0.00 | 0.06 | 0.04 | 72 | 1010.4 |
| 20260508151003 | 52 | 60 | 1.0 | 4.0 | 0.00 | 0.06 | 0.04 | 81 | 1010.7 |
| 20260508150004 | 50 | 1 | 2.0 | 7.0 | 0.00 | 0.06 | 0.04 | 83 | 1010.7 |
| 20260508145003 | 49 | 5 | 1.0 | 5.0 | 0.00 | 0.06 | 0.04 | 86 | 1010.7 |
| 20260508144003 | 48 | 4 | 2.0 | 6.0 | 0.00 | 0.06 | 0.04 | 87 | 1010.9 |
| 20260508143003 | 48 | 8 | 1.0 | 9.0 | 0.00 | 0.06 | 0.04 | 90 | 1011.0 |
| 20260508142003 | 47 | 0 | 0.0 | 0.0 | 0.00 | 0.06 | 0.04 | 93 | 1010.9 |
| 20260508141003 | 46 | 0 | 0.0 | 0.0 | 0.00 | 0.06 | 0.04 | 94 | 1010.8 |
| 20260508140004 | 46 | 0 | 0.0 | 0.0 | 0.00 | 0.06 | 0.04 | 94 | 1011.0 |
| 20260508135003 | 46 | 0 | 0.0 | 0.0 | 0.00 | 0.06 | 0.04 | 94 | 1011.3 |
| 20260508134003 | 46 | 0 | 0.0 | 0.0 | 0.00 | 0.06 | 0.04 | 94 | 1011.3 |
| 20260508133003 | 46 | 0 | 0.0 | 0.0 | 0.00 | 0.06 | 0.04 | 94 | 1011.7 |
| 20260508132214 | 46 | 0 | 0.0 | 0.0 | 0.00 | 0.06 | 0.04 | 94 | 1011.4 |
| 20260508131003 | 46 | 0 | 0.0 | 0.0 | 0.00 | 0.06 | 0.04 | 95 | 1011.3 |
| 20260508130003 | 45 | 0 | 0.0 | 0.0 | 0.00 | 0.06 | 0.04 | 95 | 1011.2 |
| 20260508125003 | 45 | 10 | 0.0 | 1.0 | 0.00 | 0.06 | 0.04 | 96 | 1011.2 |
| 20260508124003 | 45 | 107 | 0.0 | 1.0 | 0.00 | 0.06 | 0.04 | 97 | 1011.2 |
| 20260508123003 | 44 | 107 | 0.0 | 2.0 | 0.00 | 0.06 | 0.04 | 97 | 1011.1 |
| 20260508122003 | 43 | 111 | 0.0 | 2.0 | 0.00 | 0.06 | 0.04 | 97 | 1011.0 |
| 20260508121213 | 42 | 0 | 0.0 | 0.0 | 0.00 | 0.06 | 0.04 | 97 | 1010.9 |
| 20260508120004 | 41 | 121 | 0.0 | 1.0 | 0.01 | 0.06 | 0.04 | 97 | 1010.9 |
| 20260508115003 | 40 | 121 | 0.0 | 1.0 | 0.01 | 0.06 | 0.04 | 97 | 1010.9 |
| 20260508114003 | 40 | 121 | 0.0 | 1.0 | 0.01 | 0.06 | 0.04 | 96 | 1011.0 |
| 20260508113003 | 39 | 121 | 0.0 | 1.0 | 0.01 | 0.06 | 0.04 | 96 | 1011.0 |
| 20260508112003 | 38 | 0 | 0.0 | 0.0 | 0.01 | 0.06 | 0.04 | 96 | 1011.1 |
| 20260508111003 | 38 | 0 | 0.0 | 0.0 | 0.01 | 0.06 | 0.04 | 96 | 1011.1 |
| 20260508110213 | 37 | 0 | 0.0 | 0.0 | 0.00 | 0.05 | 0.03 | 95 | 1011.0 |
| 20260508105213 | 37 | 0 | 0.0 | 0.0 | 0.00 | 0.05 | 0.03 | 95 | 1010.9 |
| 20260508104003 | 36 | 0 | 0.0 | 0.0 | 0.00 | 0.05 | 0.03 | 95 | 1010.7 |
| 20260508103004 | 36 | 0 | 0.0 | 0.0 | 0.00 | 0.05 | 0.03 | 95 | 1010.6 |
| 20260508102003 | 36 | 0 | 0.0 | 0.0 | 0.00 | 0.05 | 0.03 | 95 | 1010.7 |
| 20260508101003 | 36 | 0 | 0.0 | 0.0 | 0.00 | 0.05 | 0.03 | 95 | 1010.6 |
| 20260508100003 | 36 | 0 | 0.0 | 0.0 | 0.00 | 0.05 | 0.03 | 95 | 1010.5 |
| 20260508095003 | 36 | 0 | 0.0 | 0.0 | 0.00 | 0.05 | 0.03 | 94 | 1010.6 |
| 20260508094003 | 36 | 0 | 0.0 | 0.0 | 0.00 | 0.05 | 0.03 | 94 | 1010.7 |
| 20260508093003 | 37 | 0 | 0.0 | 0.0 | 0.00 | 0.05 | 0.03 | 94 | 1010.5 |
| 20260508092003 | 37 | 0 | 0.0 | 0.0 | 0.00 | 0.05 | 0.03 | 94 | 1010.3 |
| 20260508091003 | 37 | 0 | 0.0 | 0.0 | 0.00 | 0.05 | 0.03 | 94 | 1010.5 |
| 20260508090003 | 38 | 0 | 0.0 | 0.0 | 0.00 | 0.05 | 0.03 | 94 | 1010.4 |
| 20260508085003 | 38 | 0 | 0.0 | 0.0 | 0.00 | 0.05 | 0.03 | 94 | 1010.4 |
| 20260508084003 | 38 | 0 | 0.0 | 0.0 | 0.00 | 0.05 | 0.03 | 94 | 1010.3 |
| 20260508083003 | 38 | 0 | 0.0 | 0.0 | 0.00 | 0.05 | 0.03 | 94 | 1010.2 |
| 20260508082003 | 38 | 0 | 0.0 | 0.0 | 0.00 | 0.05 | 0.03 | 94 | 1010.2 |
| 20260508081003 | 38 | 0 | 0.0 | 0.0 | 0.00 | 0.05 | 0.03 | 94 | 1010.0 |
| 20260508080003 | 38 | 121 | 0.0 | 1.0 | 0.00 | 0.05 | 0.03 | 94 | 1010.2 |
| 20260508075003 | 38 | 121 | 0.0 | 1.0 | 0.00 | 0.05 | 0.03 | 94 | 1010.2 |
| 20260508074003 | 39 | 0 | 0.0 | 0.0 | 0.00 | 0.05 | 0.03 | 94 | 1010.3 |
| 20260508073003 | 39 | 0 | 0.0 | 0.0 | 0.00 | 0.05 | 0.03 | 93 | 1010.2 |
| 20260508072003 | 39 | 0 | 0.0 | 0.0 | 0.00 | 0.05 | 0.03 | 93 | 1010.1 |
| 20260508071003 | 40 | 0 | 0.0 | 0.0 | 0.00 | 0.05 | 0.03 | 93 | 1010.1 |
| 20260508070213 | 40 | 0 | 0.0 | 0.0 | 0.00 | 0.05 | 0.03 | 93 | 1010.1 |
| 20260508065003 | 41 | 0 | 0.0 | 0.0 | 0.00 | 0.05 | 0.03 | 93 | 1010.0 |
| 20260508064003 | 41 | 0 | 0.0 | 0.0 | 0.00 | 0.05 | 0.03 | 93 | 1010.0 |
| 20260508063213 | 42 | 0 | 0.0 | 0.0 | 0.00 | 0.05 | 0.03 | 93 | 1010.2 |
| 20260508062003 | 42 | 0 | 0.0 | 0.0 | 0.00 | 0.05 | 0.03 | 93 | 1010.1 |
| 20260508061003 | 43 | 0 | 0.0 | 0.0 | 0.00 | 0.05 | 0.03 | 93 | 1010.0 |
| 20260508060003 | 43 | 0 | 0.0 | 0.0 | 0.00 | 0.05 | 0.03 | 93 | 1010.0 |
| 20260508055213 | 44 | 121 | 0.0 | 1.0 | 0.01 | 0.05 | 0.03 | 93 | 1010.1 |
| 20260508054003 | 44 | 121 | 0.0 | 1.0 | 0.01 | 0.05 | 0.03 | 93 | 1010.2 |
| 20260508053003 | 44 | 121 | 0.0 | 1.0 | 0.01 | 0.05 | 0.03 | 93 | 1010.3 |
| 20260508052003 | 44 | 0 | 0.0 | 0.0 | 0.01 | 0.05 | 0.03 | 93 | 1010.2 |
| 20260508051213 | 45 | 0 | 0.0 | 0.0 | 0.02 | 0.05 | 0.03 | 92 | 1010.2 |
| 20260508050003 | 45 | 121 | 1.0 | 3.0 | 0.03 | 0.05 | 0.03 | 92 | 1009.9 |
| 20260508045003 | 45 | 126 | 0.0 | 2.0 | 0.02 | 0.04 | 0.02 | 91 | 1010.3 |
| 20260508044003 | 46 | 318 | 0.0 | 3.0 | 0.02 | 0.04 | 0.02 | 91 | 1010.2 |
| 20260508043003 | 46 | 347 | 0.0 | 5.0 | 0.02 | 0.04 | 0.02 | 91 | 1010.1 |
| 20260508042003 | 46 | 350 | 2.0 | 6.0 | 0.03 | 0.04 | 0.02 | 90 | 1009.9 |
| 20260508041003 | 47 | 334 | 1.0 | 5.0 | 0.03 | 0.03 | 0.01 | 92 | 1009.8 |
| 20260508040004 | 47 | 0 | 0.0 | 0.0 | 0.02 | 0.02 | 0.00 | 91 | 1009.4 |
| 20260508035003 | 47 | 0 | 0.0 | 0.0 | 0.02 | 0.02 | 0.02 | 90 | 1009.1 |
| 20260508034003 | 47 | 152 | 0.0 | 2.0 | 0.02 | 0.02 | 0.02 | 88 | 1008.9 |
| 20260508033003 | 48 | 161 | 1.0 | 4.0 | 0.02 | 0.02 | 0.02 | 88 | 1008.5 |
| 20260508032214 | 49 | 298 | 2.0 | 9.0 | 0.01 | 0.01 | 0.01 | 85 | 1008.6 |
| 20260508031003 | 48 | 0 | 0.0 | 0.0 | 0.00 | 0.00 | 0.00 | 86 | 1008.8 |
| 20260508030004 | 48 | 0 | 0.0 | 0.0 | 0.00 | 0.00 | 0.00 | 87 | 1008.2 |
| 20260508025003 | 48 | 0 | 0.0 | 0.0 | 0.00 | 0.00 | 0.00 | 86 | 1007.6 |
| 20260508024215 | 48 | 0 | 0.0 | 0.0 | 0.00 | 0.00 | 0.00 | 86 | 1007.6 |
| 20260508023003 | 48 | 0 | 0.0 | 0.0 | 0.00 | 0.00 | 0.00 | 87 | 1007.6 |
| 20260508022213 | 48 | 0 | 0.0 | 0.0 | 0.00 | 0.00 | 0.00 | 86 | 1007.6 |
| 20260508021003 | 48 | 0 | 0.0 | 0.0 | 0.00 | 0.00 | 0.00 | 85 | 1007.4 |
| 20260508020003 | 48 | 0 | 0.0 | 0.0 | 0.00 | 0.00 | 0.00 | 85 | 1007.4 |
| 20260508015003 | 48 | 0 | 0.0 | 0.0 | 0.00 | 0.00 | 0.00 | 84 | 1007.5 |
| 20260508014003 | 48 | 0 | 0.0 | 0.0 | 0.00 | 0.00 | 0.00 | 83 | 1007.4 |
| 20260508013003 | 48 | 0 | 0.0 | 0.0 | 0.00 | 0.00 | 0.00 | 83 | 1007.2 |
| 20260508012213 | 49 | 0 | 0.0 | 0.0 | 0.00 | 0.00 | 0.00 | 81 | 1007.1 |
| 20260508011003 | 49 | 0 | 0.0 | 0.0 | 0.00 | 0.00 | 0.00 | 80 | 1007.1 |
| 20260508010003 | 50 | 0 | 0.0 | 0.0 | 0.00 | 0.00 | 0.00 | 79 | 1007.0 |
| 20260508005213 | 50 | 0 | 0.0 | 0.0 | 0.00 | 0.00 | 0.00 | 77 | 1006.8 |
| 20260508004003 | 51 | 0 | 0.0 | 0.0 | 0.00 | 0.00 | 0.00 | 75 | 1006.8 |
| 20260508003213 | 52 | 0 | 0.0 | 0.0 | 0.00 | 0.00 | 0.00 | 75 | 1006.8 |
| 20260508002003 | 53 | 0 | 0.0 | 0.0 | 0.00 | 0.00 | 0.00 | 72 | 1006.7 |
| 20260508001003 | 54 | 0 | 0.0 | 0.0 | 0.00 | 0.00 | 0.00 | 69 | 1006.6 |
| 20260508000003 | 54 | 0 | 0.0 | 0.0 | 0.00 | 0.00 | 0.00 | 70 | 1006.5 |
| 20260507235003 | 55 | 0 | 0.0 | 0.0 | 0.00 | 0.00 | 0.00 | 68 | 1006.5 |
| 20260507234003 | 56 | 0 | 0.0 | 0.0 | 0.00 | 0.00 | 0.00 | 65 | 1006.3 |
| 20260507233003 | 57 | 0 | 0.0 | 0.0 | 0.00 | 0.00 | 0.00 | 63 | 1006.2 |
| 20260507232003 | 57 | 282 | 0.0 | 2.0 | 0.00 | 0.00 | 0.00 | 54 | 1006.2 |
| 20260507231003 | 58 | 285 | 1.0 | 3.0 | 0.00 | 0.00 | 0.00 | 49 | 1006.1 |
| 20260507230003 | 58 | 194 | 1.0 | 2.0 | 0.00 | 0.00 | 0.00 | 48 | 1006.1 |
| 20260507225003 | 59 | 273 | 1.0 | 4.0 | 0.00 | 0.00 | 0.00 | 47 | 1006.1 |
| 20260507224003 | 59 | 243 | 1.0 | 5.0 | 0.00 | 0.00 | 0.00 | 47 | 1006.1 |
| 20260507223003 | 59 | 271 | 1.0 | 6.0 | 0.00 | 0.00 | 0.00 | 47 | 1006.0 |
| 20260507222003 | 59 | 250 | 0.0 | 2.0 | 0.00 | 0.01 | 0.00 | 51 | 1006.0 |
| 20260507221214 | 59 | 257 | 1.0 | 3.0 | 0.00 | 0.01 | 0.00 | 46 | 1006.0 |
| 20260507220003 | 59 | 296 | 0.0 | 3.0 | 0.00 | 0.01 | 0.00 | 46 | 1005.9 |
| 20260507215003 | 60 | 291 | 1.0 | 6.0 | 0.00 | 0.01 | 0.00 | 45 | 1006.0 |
| 20260507214003 | 60 | 297 | 1.0 | 6.0 | 0.00 | 0.01 | 0.00 | 45 | 1006.0 |
| 20260507213003 | 60 | 276 | 1.0 | 4.0 | 0.00 | 0.01 | 0.00 | 46 | 1006.1 |
| 20260507212214 | 60 | 296 | 2.0 | 7.0 | 0.00 | 0.01 | 0.00 | 45 | 1006.1 |
| 20260507211003 | 60 | 285 | 1.0 | 6.0 | 0.00 | 0.01 | 0.00 | 43 | 1006.1 |
| 20260507210214 | 60 | 280 | 1.0 | 4.0 | 0.00 | 0.01 | 0.00 | 42 | 1006.1 |
| 20260507205003 | 60 | 31 | 0.0 | 3.0 | 0.00 | 0.01 | 0.00 | 44 | 1005.9 |
| 20260507204003 | 60 | 294 | 2.0 | 4.0 | 0.00 | 0.01 | 0.00 | 43 | 1005.9 |
| 20260507203213 | 60 | 283 | 2.0 | 4.0 | 0.00 | 0.01 | 0.00 | 43 | 1006.0 |
| 20260507202004 | 61 | 273 | 2.0 | 6.0 | 0.00 | 0.01 | 0.00 | 41 | 1006.0 |
| 20260507201003 | 62 | 116 | 1.0 | 3.0 | 0.00 | 0.01 | 0.00 | 39 | 1006.1 |
| 20260507200003 | 63 | 355 | 1.0 | 6.0 | 0.00 | 0.01 | 0.00 | 38 | 1006.2 |
| 20260507195213 | 64 | 343 | 1.0 | 4.0 | 0.00 | 0.01 | 0.00 | 39 | 1006.2 |
| 20260507194003 | 64 | 20 | 2.0 | 9.0 | 0.00 | 0.01 | 0.00 | 37 | 1006.2 |
| 20260507193003 | 64 | 332 | 2.0 | 6.0 | 0.00 | 0.01 | 0.00 | 41 | 1006.3 |
| 20260507192003 | 63 | 307 | 2.0 | 10.0 | 0.00 | 0.01 | 0.00 | 41 | 1006.3 |
| 20260507191003 | 62 | 252 | 1.0 | 3.0 | 0.00 | 0.01 | 0.00 | 41 | 1006.4 |
| 20260507190004 | 61 | 332 | 1.0 | 3.0 | 0.00 | 0.01 | 0.00 | 40 | 1006.5 |
| 20260507185003 | 60 | 322 | 2.0 | 7.0 | 0.00 | 0.01 | 0.00 | 43 | 1006.7 |
| 20260507184003 | 61 | 331 | 2.0 | 6.0 | 0.00 | 0.01 | 0.00 | 43 | 1006.9 |
| 20260507183003 | 60 | 354 | 1.0 | 4.0 | 0.00 | 0.01 | 0.00 | 43 | 1007.0 |
| 20260507182003 | 60 | 284 | 1.0 | 4.0 | 0.00 | 0.01 | 0.00 | 43 | 1007.0 |
| 20260507181003 | 60 | 309 | 2.0 | 6.0 | 0.00 | 0.01 | 0.00 | 42 | 1007.1 |
| 20260507180003 | 60 | 185 | 1.0 | 5.0 | 0.00 | 0.01 | 0.00 | 47 | 1007.1 |
| 20260507175003 | 59 | 259 | 2.0 | 4.0 | 0.00 | 0.01 | 0.00 | 45 | 1007.4 |
| 20260507174003 | 58 | 286 | 2.0 | 6.0 | 0.00 | 0.02 | 0.00 | 44 | 1007.4 |
| 20260507173003 | 59 | 282 | 1.0 | 6.0 | 0.00 | 0.02 | 0.00 | 46 | 1007.6 |
| 20260507172003 | 58 | 298 | 2.0 | 9.0 | 0.00 | 0.02 | 0.00 | 44 | 1007.7 |
| 20260507171214 | 58 | 296 | 1.0 | 7.0 | 0.00 | 0.03 | 0.00 | 46 | 1007.9 |
| 20260507170214 | 58 | 295 | 2.0 | 9.0 | 0.00 | 0.03 | 0.00 | 44 | 1007.9 |
| 20260507165003 | 58 | 275 | 1.0 | 6.0 | 0.00 | 0.04 | 0.00 | 45 | 1008.1 |
| 20260507164003 | 59 | 339 | 2.0 | 6.0 | 0.00 | 0.04 | 0.00 | 44 | 1008.3 |
| 20260507163003 | 59 | 304 | 1.0 | 9.0 | 0.00 | 0.04 | 0.00 | 43 | 1008.3 |
| 20260507162003 | 60 | 357 | 2.0 | 6.0 | 0.00 | 0.05 | 0.00 | 42 | 1008.5 |
| 20260507161003 | 59 | 297 | 3.0 | 11.0 | 0.00 | 0.06 | 0.00 | 45 | 1008.5 |
| 20260507160004 | 59 | 75 | 2.0 | 9.0 | 0.00 | 0.07 | 0.00 | 45 | 1008.7 |
| 20260507155003 | 57 | 281 | 2.0 | 8.0 | 0.00 | 0.07 | 0.00 | 45 | 1008.9 |
| 20260507154003 | 58 | 290 | 1.0 | 4.0 | 0.00 | 0.08 | 0.00 | 46 | 1008.9 |